Regional Weather Roundup
Issued by NWS Newport/Morehead, NC

Current Version | Previous Version | Graphics & Text | Print | Product List | Glossary On
Versions: 1 2 3 4 5 6 7 8 9 10 11 12 13 14 15 16 17 18 19 20 21 22 23 24 25 26 27 28 29 30 31 32 33 34 35 36 37 38 39 40 41 42 43 44 45 46 47 48 49 50
000 ASUS42 KMHX 191513 RWRMHX WEATHER ROUNDUP FOR EASTERN NORTH CAROLINA NATIONAL WEATHER SERVICE NEWPORT/MOREHEAD CITY NC 1000 AM EST SUN NOV 19 2017 NOTE: "FAIR" INDICATES FEW OR NO CLOUDS BELOW 12,000 FEET WITH NO SIGNIFICANT WEATHER AND/OR OBSTRUCTIONS TO VISIBILITY NCZ015>017-031-032-045>047-102-103-191600- NORTH COAST CITY SKY/WX TMP DP RH WIND PRES REMARKS EDENTON CLOUDY 58 44 58 NW13G24 29.72R ELIZABETH CITY MOSUNNY 57 45 64 W17G25 29.69R KITTY HAWK CLOUDY 59 55 87 W12G23 29.65R MANTEO CLOUDY 59 54 84 NW14G22 29.68R $$ NCZ045>047-081-094-103-104-191600- CENTRAL COAST CITY SKY/WX TMP DP RH WIND PRES REMARKS FRISCO LGT RAIN 61 58 90 W13G26 29.70R $$ NCZ095-097-098-100-101-191600- SOUTHERN COAST CITY SKY/WX TMP DP RH WIND PRES REMARKS BEAUFORT MOSUNNY 63 54 72 NW15 29.73R CEDAR ISLAND NOT AVBL JACKSONVILLE NOT AVBL PINEY ISLAND NOT AVBL WILMINGTON PTSUNNY 63 52 67 NW20G26 29.78R $$ NCZ011>013-027>030-043-044-078>080-089-090>093-098-191600- COASTAL PLAIN CITY SKY/WX TMP DP RH WIND PRES REMARKS AHOSKIE SUNNY 55 38 52 NW8 29.74R CLINTON PTSUNNY 57 41 54 NW9G24 29.82R ELIZABETHTOWN NOT AVBL GOLDSBORO MOSUNNY 57 39 50 NW15G21 29.77R GREENVILLE MOSUNNY 55 39 54 NW14G20 29.79R HAVELOCK NOT AVBL KENANSVILLE CLOUDY 57 39 51 NW15G21 29.80R KINSTON PTSUNNY 57 41 54 NW13G20 29.78R NEW BERN CLOUDY 59 48 67 NW13 29.76R RICHLANDS MOSUNNY 60 44 55 NW9 29.79R ROCKY MOUNT SUNNY 56 37 49 NW20G25 29.78R WASHINGTON CLOUDY 57 43 59 W9G17 29.74R WHITEVILLE MOSUNNY 60 44 53 NW7 29.81R $$ AMZ130-135-150-152-154-156-158-170-250-252-270-ANZ085-086-088-633-658-670-191600- MARINE OBSERVATIONS STATION/POSITION TIME TEMP WIND PRES WAVE SWELL AIR SEA DIR/SP/G HT/PER HT/PER (UTC) (F) (DEG/KT/KT) (MB) (FT/S) (FT/S) CHESAPEAKE LIGHT NOT AVBL 64 E VA BEACH 1450 62 62 270/ 23/ 29 1002.9 7/ 8 3/ 8 DUCK NOT AVBL 2 E DUCK 1500 62 N/A 2/ 8 OREGON INLET NOT AVBL 13E OREGON INLT 1448 63 N/A 5/ 8 HATTERAS CG NOT AVBL DIAMOND BUOY 1450 66 65 240/ 23/ 29 1005.1 12/ 8 2/14 CAPE LOOKOUT 1500 300/ 17/ 20 1006.6 BEAUFORT LAB NOT AVBL 30 SE NEW RVR IN 1408 67 70 240/ 19/ 25 1006.3 30 SE NEW RVR IN 1500 68 N/A 10/ 8 2/11 27 SE WRIGHTSVLE 1408 67 68 240/ 23/ 35 1006.6 5 SE WRIGHTSVLE 1408 65 64 260/ 12/ 17 1006.5 225 S CAPE HAT 1450 76 76 230/ 23/ 27 1010.2 8/ 6 2/11 41 SE CHARLESTON 1450 65 75 280/ 21/ 25 1009.6 9/ 7 $$

USA.gov is the U.S. government's official web portal to all federal, state and local government web resources and services.